Location: Kampernieuwstad
(52.5135°N, 5.8742°E)
Time: 07:12:03
(UTC+00:00)

Cosmos 990 Rocket - Pass Details

Date: 15 May 2026
Orbit: 742 x 763 km, 74.0° (Epoch: 5 June)

Event Time Altitude Azimuth Distance (km) Brightness Sun altitude
Rises 21:14:50 0° 334° (NNW) 3,207 9.2 -12.4°
Reaches altitude 10° 21:17:12 10° 336° (NNW) 2,282 7.9 -12.6°
Maximum altitude 21:22:23 82° 64° (ENE) 768 4.0 -13.0°
Enters shadow 21:26:04 20° 151° (SSE) 1,712 5.2 -13.3°
